Location: Chanteloup
(48.8560°N, 2.7390°E)
Time: 15:45:11
(UTC+00:00)

USA 215 - Pass Details

Date: 24 October 2021
Orbit: 1099 x 1109 km, 123.0° (Epoch: 20 November)

Event Time Altitude Azimuth Distance (km) Brightness Sun altitude
Exits shadow 20:55:56 36° 327° (NNW) 1,664 4.4 -40.9°
Drops below altitude 10° 21:00:13 10° 297° (WNW) 2,965 6.2 -41.5°
Sets 21:02:48 0° 291° (WNW) 3,925 6.9 -41.8°
